RH
3 4 6 9 11 14 20 27 33 42 46 46 44 44 47 52 50 48 51 56 52 47 47 48 51 55 55 53 54 55 54 48 53 55 55 54 49 50 51 46 46 51 58 61 64 59 60 63 59
3 7 11 12 15 18 22 28 31 38 43 43 44 46 47 47 47 45 47 54 52 46 42 43 46 45 45 44 43 43 44 45 43 44 48 49 48 50 50 46 47 61 64 69 63 60 59 63 67
8 11 13 16 19 19 20 28 39 43 44 46 47 47 48 49 46 46 48 48 44 42 41 42 41 40 37 36 35 34 33 37 37 35 33 39 44 44 48 52 60 76 69 64 67 63 61 60 56
13 13 15 20 22 22 24 34 41 42 43 46 49 48 48 46 42 45 44 35 37 40 38 37 35 33 33 32 31 31 29 27 27 26 24 26 29 31 37 42 50 52 59 61 56 55 54 53 51
12 15 19 25 25 27 32 35 36 37 37 38 37 38 34 29 30 31 31 33 37 37 35 35 34 32 31 32 26 21 18 17 18 19 19 18 18 20 23 26 31 34 32 33 35 35 37 39 41
14 16 20 20 20 23 27 28 26 28 28 30 31 28 29 25 29 30 34 35 32 32 32 31 31 25 21 17 16 20 22 26 27 27 27 24 23 23 23 23 24 26 27 26 26 26 26 26 27
15 16 17 18 19 19 15 15 18 19 21 23 21 26 26 29 35 34 34 35 31 25 20 21 22 20 19 22 24 24 21 22 28 33 32 27 26 27 27 28 29 29 29 28 28 28 30 32 33
16 17 18 18 18 16 13 13 13 14 16 18 17 24 26 25 28 28 31 29 28 24 25 26 24 24 24 20 14 13 14 17 22 24 19 18 18 19 20 21 22 22 21 20 19 20 23 27 25
18 19 18 16 15 13 12 11 10 11 14 12 16 16 17 20 22 25 26 25 21 22 26 25 23 19 14 12 12 12 13 14 17 19 18 17 17 18 20 19 18 13 11 11 15 15 18 16 14
16 16 14 12 10 10 9 9 9 11 12 13 13 13 15 17 20 21 21 20 17 23 25 23 19 19 16 15 15 14 15 16 18 19 22 23 23 24 26 23 19 17 15 15 16 16 15 15 16
12 14 12 9 9 10 11 11 10 12 12 12 12 13 17 19 20 20 20 20 20 20 21 23 22 20 18 18 18 17 18 22 25 27 27 28 28 28 27 26 26 25 24 23 22 21 19 19 19
12 13 13 13 11 11 13 13 13 14 11 11 14 15 17 19 21 20 18 17 20 22 27 30 25 23 22 22 23 22 22 25 29 32 32 33 33 34 34 32 31 30 29 28 28 27 27 26 25
13 15 17 19 17 17 16 16 16 17 16 15 18 20 20 21 21 24 25 26 29 29 31 31 28 27 25 25 26 27 28 31 35 37 38 39 40 41 41 39 38 37 36 35 35 33 32 31 30
14 15 19 21 21 20 17 17 17 17 19 18 18 20 21 22 22 23 26 26 28 30 32 32 31 30 32 34 34 35 35 37 38 40 42 44 45 45 45 43 41 41 41 41 41 41 40 38 36
19 18 17 19 21 21 19 19 19 18 20 18 16 19 21 21 21 21 23 25 27 30 36 36 36 37 39 41 39 38 38 38 39 40 42 43 44 44 44 44 44 43 42 43 44 44 44 43 42
19 19 20 20 22 22 20 21 19 17 18 19 18 19 21 22 23 24 27 30 34 36 40 42 42 43 45 45 44 44 43 42 42 42 43 44 44 45 45 45 45 46 47 47 48 47 48 48 47
18 18 18 21 23 23 23 22 18 20 20 20 19 19 22 26 26 27 28 31 34 37 42 46 45 46 46 47 47 47 47 45 46 45 45 46 46 46 47 47 47 48 49 49 49 50 51 51 51
19 19 19 20 21 22 22 23 22 19 22 22 22 21 23 28 32 31 30 32 35 39 42 46 48 49 50 51 52 52 51 51 51 51 50 49 48 48 48 48 49 50 51 51 51 51 52 54 55
19 22 22 20 20 22 25 26 22 21 23 24 24 25 26 26 29 30 30 31 34 38 44 49 51 52 52 58 60 59 57 57 57 55 52 51 52 52 51 50 50 52 55 56 56 56 56 56 57
21 22 22 22 23 25 27 27 23 23 25 25 27 27 28 29 29 30 30 33 37 43 49 54 56 60 64 65 65 62 62 62 59 58 58 57 54 53 53 54 54 55 56 58 58 58 58 59 60
24 23 24 26 25 28 29 28 26 25 26 28 29 30 30 30 32 34 37 41 46 50 55 59 62 65 65 63 62 63 63 61 61 64 62 58 56 55 55 55 57 59 59 57 59 61 60 60 61
27 24 25 27 29 34 31 35 32 31 31 33 33 33 34 35 36 41 45 47 51 54 56 59 60 61 61 60 62 61 59 59 60 60 61 60 58 55 54 53 55 58 60 60 62 63 65 66 65
28 27 28 29 32 35 36 36 35 34 34 36 37 38 39 40 42 47 50 53 55 59 61 61 60 59 62 62 60 60 59 60 58 57 55 53 52 53 52 52 54 56 59 60 64 65 68 69 72
29 30 31 36 39 44 41 41 40 38 40 42 43 44 47 48 49 53 58 61 61 62 63 63 62 62 63 64 64 66 67 63 58 57 54 53 50 49 50 50 51 53 56 59 64 67 69 72 74
34 35 40 43 51 50 42 41 42 41 45 48 48 49 51 54 57 58 60 62 64 65 67 68 68 71 73 72 72 70 66 63 60 58 53 51 48 43 41 38 37 40 45 52 58 64 70 73 79
41 42 51 43 59 56 44 44 45 46 51 52 51 52 54 56 57 59 62 63 67 70 71 72 72 74 72 67 63 61 61 61 59 53 47 45 46 44 39 35 33 38 45 53 62 71 76 83 89
45 50 47 56 58 63 52 44 47 48 52 51 50 53 56 56 58 61 64 67 69 69 70 70 70 69 70 69 68 68 65 60 55 54 51 48 47 48 45 48 47 47 53 59 69 77 87 87 90
47 48 54 59 64 62 54 49 46 50 53 53 55 56 57 59 62 62 63 63 65 68 69 70 70 68 65 61 59 58 57 59 60 57 53 49 56 58 60 63 68 65 70 71 76 84 85 86 86
51 53 56 57 65 73 75 58 49 50 50 53 55 57 58 59 60 60 62 65 67 69 71 71 69 66 62 56 50 51 52 51 50 47 45 47 51 55 62 72 72 74 80 72 72 77 80 81 86
49 53 56 63 61 70 74 59 47 54 55 55 54 56 59 61 62 64 66 66 68 68 67 63 60 58 56 53 58 62 62 54 47 43 46 50 51 55 65 74 81 84 83 83 86 87 89 86 81